Regional Weather Roundup
Issued by NWS

Home | Current Version | Previous Version | Text Only | Print | Product List | Glossary Off
Versions: 1 2 3 4 5 6 7 8 9 10 11 12 13 14 15 16 17 18 19 20 21 22 23 24 25 26 27 28 29 30 31 32 33 34 35 36 37 38 39 40 41 42 43 44 45 46 47 48 49 50

000
ASUS43 KLOT 221312
RWRIL

ILLINOIS REGIONAL WEATHER ROUNDUP
NATIONAL WEATHER SERVICE CHICAGO/ROMEOVILLE IL
700 AM CST SUN JAN 22 2017

NOTE: "FAIR" INDICATES FEW OR NO CLOUDS BELOW 12,000 FEET WITH NO
SIGNIFICANT WEATHER AND/OR OBSTRUCTIONS TO VISIBILITY.

* THESE STATIONS ARE NOT UNDER NWS QUALITY CONTROL. THEY ALSO MAY NOT
  REPORT WEATHER SUCH AS PRECIPITATION OR FOG.

ILZ001-002-007-009-015-016-024-221400-
NORTHWEST ILLINOIS

CITY           SKY/WX    TMP DP  RH WIND       PRES   REMARKS
MOLINE         CLOUDY    32  30  92 CALM      29.61R FOG
STERLING*      FOG       29  29 100 E3        29.63R VSB 1/2
SAVANNA*       FOG       32  32 100 N3        29.62R VSB 1/4
$$

ILZ003-004-008-010-011-017-018-221400-
NORTH CENTRAL ILLINOIS

CITY           SKY/WX    TMP DP  RH WIND       PRES   REMARKS
ROCKFORD       FOG       34  33  96 CALM      29.63R VSB 1/4
FREEPORT*      FOG       32  32  99 CALM      29.63R VSB 1/4
ROCHELLE*      FOG       30  30 100 CALM      29.63R VSB 1/4
DE KALB*       FOG       32  32 100 CALM      29.62R VSB<1/4
$$

ILZ005-006-012>014-019>023-221400-
NORTHEAST ILLINOIS

CITY           SKY/WX    TMP DP  RH WIND       PRES   REMARKS
CHICAGO-OHARE  CLOUDY    40  38  93 N3        29.61R
CHICAGO-MIDWAY FOG       41  40  96 E5        29.61R VSB 3/4
AURORA         FOG       31  29  92 CALM      29.62R VSB 1/4
LANSING*       LGT RAIN  39  39 100 NE6       29.61S VSB 3/4 WCI  34
JOLIET*        FOG       38  38 100 N3        29.62R VSB<1/4
WAUKEGAN       CLOUDY    39  39 100 CALM      29.60R FOG
DUPAGE AIRPORT FOG       31  29  92 NE3       29.61R VSB 1/4
KANKAKEE*      FOG       37  36  97 CALM      29.60S VSB 1/4
WHEELING       CLOUDY    41  38  89 CALM      29.63R
MORRIS*        FOG       32  32  99 CALM      29.61R VSB 1/4
ROMEOVILLE*    FOG       38  38 100 NE5       29.61R VSB 1/4 WCI  35
NORTHERLY ISL    N/A     37  36  96 CALM        N/A
$$

LMZ740>746-221400-
SOUTHERN LAKE MICHIGAN

STATION/POSITION SKY/WX   TEMP    WIND        PRES    VSBY  WAVE
                          AIR SEA DIR/SP/G                  HT/PER
                          (F)     (DEG/KT/KT) (MB)    (MI)  (FT/S)
HARRISON CRIB              39     120/  2/  2   N/A
BURNHAM HARBOR             36      CALM  /  1   N/A
CALUMET HARBOR             37      30/  2/  3 1002.5R
BURNS HARBOR               35      50/  7/  7 1003.7R
MICHIGAN CITY              36      30/  8/  8   N/A
$$

ILZ025>027-034>036-040-047-049-050-058-095>099-221400-
WEST-CENTRAL ILLINOIS

CITY           SKY/WX    TMP DP  RH WIND       PRES   REMARKS
QUINCY         CLOUDY    40  39  97 N8        29.59R FOG
GALESBURG*     CLOUDY    32  32 100 CALM      29.61R FOG
MACOMB*        CLOUDY    36  36 100 CALM      29.62R FOG
JACKSONVILLE*  FOG       40  40  99 N7        29.58S VSB 1/2
PITTSFIELD*    FOG       42  42 100 N5        29.59R VSB 1
$$

ILZ028>032-037-038-041>044-048-051>054-059>061-221400-
CENTRAL ILLINOIS

CITY           SKY/WX    TMP DP  RH WIND       PRES   REMARKS
PONTIAC        DRZL/FOG  40  40 100 N6        29.61R VSB 1/2
BLOOMINGTON    LGT RAIN  37  37 100 NE12      29.59R VSB 1/4 WCI  29
DECATUR        CLOUDY    40  40 100 NE7       29.57R
PEORIA         FOG       40  40 100 NE6       29.60S VSB 1/4
LACON*         FOG       35  35 100 N3        29.62R VSB 1/4
LINCOLN*       FOG       39  39 100 N7        29.59R VSB 1/2 WCI  34
SPRINGFIELD    FOG       40  39  97 N7        29.58R VSB 1/2
TAYLORVILLE    PTCLDY    39  39  98 N7        29.56S FOG     WCI  34
$$

ILZ033-039-045-046-055>057-062-063-221400-
EAST-CENTRAL ILLINOIS

CITY           SKY/WX    TMP DP  RH WIND       PRES   REMARKS
CHAMPAIGN      PTCLDY    41  39  93 N6        29.55R
RANTOUL*       CLOUDY    39  39  99 N7        29.56R FOG     WCI  34
MATTOON        FOG       43  42  97 CALM      29.54R VSB 1/4
PARIS*         CLOUDY    44  44 100 CALM      29.57R FOG
$$

ILZ079-100>102-221400-
SOUTHWEST ILLINOIS

CITY           SKY/WX    TMP DP  RH WIND       PRES   REMARKS
ALTON          CLOUDY    45  43  93 N12       29.54S
CAHOKIA*       CLOUDY    49  42  77 N8        29.51S
SPARTA*        CLOUDY    48  47  97 E3        29.50S
$$

ILZ064>066-069>071-074>076-080>082-084>086-088>090-092>094-221400-
SOUTH-CENTRAL ILLINOIS

CITY           SKY/WX    TMP DP  RH WIND       PRES   REMARKS
CARBONDALE     CLOUDY    49  48  97 NE6       29.48F
CAIRO*         CLOUDY    52  49  92 NE3       29.46F
EFFINGHAM*     MOCLDY    49  49 100 E3        29.55S
MARION         CLOUDY    50  48  93 N5        29.49F
MT. VERNON     CLOUDY    50  48  93 N5        29.51S
CENTRALIA*     CLOUDY    49  49  99 CALM      29.50S
SALEM*         CLOUDY    52  49  88 E3        29.52R
METROPOLIS*    CLOUDY    51  49  93 CALM      29.48S
$$

ILZ067-068-072-073-078-083-087-091-221400-
SOUTHEAST ILLINOIS

CITY           SKY/WX    TMP DP  RH WIND       PRES   REMARKS
LAWRENCEVILLE  PTCLDY    47  46  97 NE7       29.54S
FLORA*         CLOUDY    51  49  91 E3        29.53S
FAIRFIELD*     CLOUDY    51  49  91 CALM      29.51S
HARRISBURG*    CLOUDY    52  49  90 NE6       29.50F
ROBINSON*      CLOUDY    47  46  97 E3        29.56S
CARMI*         CLOUDY    47  47  97 N3        29.51S
$$

ABBREVIATIONS USED IN REMARKS
   TC - TEMPERATURE IN CELSIUS
  WCI - WIND CHILL INDEX
   HX - HEAT INDEX
  VSB - VISIBILITY
$$




USA.gov is the U.S. government's official web portal to all federal, state and local government web resources and services.